Location: Six Mile Lake
(44.9000°N, 79.7170°W)
Time: 06:52:20
(UTC-04:00)

LO-87 - Visible Passes

Search period start: 30 June 2022 00:00
Search period end: 10 July 2022 00:00
Orbit: 454 x 468 km, 97.4° (Epoch: 30 June)

Date Brightness Start Highest point End Pass type
(mag) Time Alt. Az. Time Alt. Az. Time Alt. Az.
30 Jun ? 01:11:30 46° WNW 01:11:30 46° WNW 01:14:30 10° NNW visible
01 Jul ? 00:39:36 60° ENE 00:39:36 60° ENE 00:42:58 10° N visible
02 Jul ? 00:07:42 24° E 00:08:05 24° ENE 00:10:57 10° NNE visible
02 Jul ? 01:41:34 20° W 01:41:34 20° W 01:43:43 10° NW visible
02 Jul ? 23:35:47 10° E 23:36:45 11° ENE 23:37:50 10° NE visible
03 Jul ? 01:09:40 49° WNW 01:09:40 49° WNW 01:12:40 10° NNW visible
04 Jul ? 00:37:44 56° ENE 00:37:44 56° ENE 00:41:04 10° N visible
05 Jul ? 00:05:47 23° ENE 00:06:08 23° ENE 00:08:57 10° NNE visible
05 Jul ? 01:39:39 21° WNW 01:39:39 21° WNW 01:41:50 10° NW visible
05 Jul ? 23:34:01 10° ENE 23:34:47 11° ENE 23:35:33 10° NE visible
06 Jul ? 01:07:42 51° WNW 01:07:42 51° WNW 01:10:41 10° NNW visible
07 Jul ? 00:35:43 52° ENE 00:35:43 52° ENE 00:38:59 10° N visible
08 Jul ? 00:03:44 22° ENE 00:04:04 22° ENE 00:06:47 10° NNE visible
08 Jul ? 01:37:36 22° WNW 01:37:36 22° WNW 01:39:47 10° NW visible
09 Jul ? 01:05:35 53° WNW 01:05:35 53° WNW 01:08:33 10° NNW visible
